Location: Bannatyne
(13.0833°N, 59.5333°W)
Time: 06:35:32
(UTC+00:00)

Transit 2A - Pass Details

Date: 03 February 2020
Orbit: 599 x 959 km, 66.7° (Epoch: 27 February)

Event Time Altitude Azimuth Distance (km) Brightness Sun altitude
Rises 08:18:49 0° 325° (NW) 3,238 - -30.4°
Reaches altitude 10° 08:21:16 10° 317° (NW) 2,368 - -29.9°
Maximum altitude 08:26:19 38° 250° (WSW) 1,271 - -28.7°
Exits shadow 08:29:20 23° 199° (SSW) 1,785 7.8 -27.9°
Drops below altitude 10° 08:31:49 10° 184° (S) 2,577 8.8 -27.4°
Sets 08:34:35 0° 176° (S) 3,558 9.6 -26.7°
